Regional Weather Roundup
Issued by NWS

Home | Current Version | Previous Version | Text Only | Print | Product List | Glossary Off
Versions: 1 2 3 4 5 6 7 8 9 10 11 12 13 14 15 16 17 18 19 20 21 22 23 24 25 26 27 28 29 30 31 32 33 34 35 36 37 38 39 40 41 42 43 44 45 46 47 48 49 50

552
ASUS43 KBIS 210610
RWRND

NORTH DAKOTA REGIONAL WEATHER ROUNDUP
NATIONAL WEATHER SERVICE BISMARCK ND
100 AM CDT MON AUG 21 2017

NOTE: "FAIR" INDICATES FEW OR NO CLOUDS BELOW 12,000 FEET WITH NO
SIGNIFICANT WEATHER AND/OR OBSTRUCTIONS TO VISIBILITY.


NDZ001>003-009>011-017-210700-
NORTHWEST NORTH DAKOTA

CITY           SKY/WX    TMP DP  RH WIND       PRES   REMARKS
WILLISTON      PTCLDY    64  49  57 S7        29.96F
6HR MIN TEMP:  64; 6HR MAX TEMP:  77;

MINOT          CLOUDY    65  49  56 S12       29.99F
MINOT AFB      CLOUDY    62  49  64 S8        29.97F
$$

NDZ018>021-031>035-040>046-210700-
SOUTHWEST NORTH DAKOTA

CITY           SKY/WX    TMP DP  RH WIND       PRES   REMARKS
BISMARCK       CLOUDY    58  54  86 E5        30.04F
6HR MIN TEMP:  57; 6HR MAX TEMP:  70; 6HR PCP:  0.01;

DICKINSON      MOCLDY    58  46  64 SE13      29.97F
GARRISON         N/A     61  52  72 S9        30.01F
6HR MIN TEMP:  59; 6HR MAX TEMP:  71;

HETTINGER ARPT CLOUDY    56  47  71 E9        30.02S
$$

NDZ004>008-012>016-024-026-027-054-210700-
NORTHEAST NORTH DAKOTA

CITY           SKY/WX    TMP DP  RH WIND       PRES   REMARKS
GRAND FORKS    CLOUDY    54  51  90 CALM      30.02S
GRND FRKS AFB  CLOUDY    51  48  90 SW3       30.02S
DEVILS LAKE    CLOUDY    63  49  60 S6        30.04S
$$

NDZ022-023-025-028>030-036>039-047>053-210700-
SOUTHEAST NORTH DAKOTA

CITY           SKY/WX    TMP DP  RH WIND       PRES   REMARKS
FARGO          CLOUDY    62  55  77 CALM      30.03S
6HR MIN TEMP:  61; 6HR MAX TEMP:  75;

JAMESTOWN      CLOUDY    62  53  72 SW5       30.04S
$$





USA.gov is the U.S. government's official web portal to all federal, state and local government web resources and services.